Regional Weather Roundup
Issued by NWS

Home | Current Version | Previous Version | Graphics & Text | Print | Product List | Glossary On
Versions: 1 2 3 4 5 6 7 8 9 10 11 12 13 14 15 16 17 18 19 20 21 22 23 24 25 26 27 28 29 30 31 32 33 34 35 36 37 38 39 40 41 42 43 44 45 46 47 48 49 50
000
ASUS45 KABQ 152110
RWRNM
NEW MEXICO REGIONAL WEATHER ROUNDUP
NATIONAL WEATHER SERVICE ALBUQUERQUE NM
200 PM MST FRI DEC 15 2017

NOTE: "FAIR" MEANS FEW OR NO CLOUDS BELOW 12,000 FEET AGL WITH NO
       SIGNIFICANT WEATHER OR OBSTRUCTIONS TO VISION.

      THIS PRODUCT IS RELEASED AS TWO VERSIONS.  ONE VERSION NEAR
      THE TOP OF THE HOUR CONTAINING PRELIMINARY DATA FROM ALBUQUERQUE
      AND OTHER STATIONS.  A FINAL VERSION WITH ADDITIONAL DATA IS
      ISSUED ABOUT 10 MINUTES AFTER THE HOUR.

NMZ501-503-504-510>518-152200-
NORTHWEST PLATEAU/NORTHCENTRAL MOUNTAINS

CITY           SKY/WX    TMP DP  RH WIND       PRES   REMARKS
FARMINGTON     FAIR      44  15  31 VRB3      30.20F
LOS ALAMOS     FAIR      41  13  32 CALM      30.20F
SANTA FE       FAIR      46  12  25 NW12G20   30.18F
TAOS           FAIR      46   1  15 SW5       30.21F
ANGEL FIRE     FAIR      42  -3  14 W15G21    30.17F

$$
NMZ402-403-502-505>509-152200-
WESTCENTRAL MOUNTAINS/SOUTHWEST MOUNTAINS

CITY           SKY/WX    TMP DP  RH WIND       PRES   REMARKS
GALLUP         FAIR      51   0  12 VRB3      30.22F
GRANTS         FAIR      51  -4  10 N9        30.23F
SILVER CITY    FAIR      47  17  29 SE7       30.23F

$$
NMZ407-409-411-412-152200-
SOUTHERN DESERTS

CITY           SKY/WX    TMP DP  RH WIND       PRES   REMARKS
DEMING         FAIR      50  19  29 SE3       30.23F
LAS CRUCES     FAIR      50  20  30 CALM      30.24F
HOLLOMAN AFB   FAIR      53  19  26 CALM      30.25F
ALAMOGORDO     FAIR      48  18  29 S3        30.25F
T OR C         FAIR      50  20  30 SE6       30.22F

$$
NMZ519>523-152200-
CENTRAL VALLEYS/CENTRAL HIGHLANDS

CITY           SKY/WX    TMP DP  RH WIND       PRES   REMARKS
ALBUQUERQUE    FAIR      45  15  30 SW5       30.21F
DOUBLE EAGLE   SUNNY     45  16  31 VRB6      30.22F
MORIARTY ARPT  FAIR      53   9  17 NW16      30.18F
CLINES CORNERS FAIR      47   2  15 NW25G35   30.15F
BELEN          FAIR      47  16  29 NE3       30.22F
SOCORRO        FAIR      47  17  29 SE3       30.23F

$$
NMZ524>526-539-540-152200-
SOUTHCENTRAL MOUNTAINS

CITY           SKY/WX    TMP DP  RH WIND       PRES   REMARKS
RUIDOSO        FAIR      45   7  21 NW12      30.20F

$$
NMZ527>531-152200-
NORTHEAST HIGHLANDS/NORTHEAST PLAINS

CITY           SKY/WX    TMP DP  RH WIND       PRES   REMARKS
LAS VEGAS      FAIR      52  -1  11 S13       30.10F
RATON          FAIR      50   5  16 S6        30.06F
CLAYTON        FAIR      56   9  15 SW15      30.04F

$$
NMZ532>537-152200-
EASTCENTRAL PLAINS

CITY           SKY/WX    TMP DP  RH WIND       PRES   REMARKS
SANTA ROSA     FAIR      57  11  16 S9        30.08F
TUCUMCARI      FAIR      59  15  18 SW14      30.07F
CANNON AFB     FAIR      51  19  28 SW16      30.14F
CLOVIS AIRPORT FAIR      51  21  30 SW18      30.13F

$$
NMZ028-029-538-152200-
SOUTHEAST PLAINS

CITY           SKY/WX    TMP DP  RH WIND       PRES   REMARKS
ROSWELL        FAIR      54  23  30 S15       30.16F
ARTESIA        FAIR      52  23  32 S15       30.19F
CARLSBAD       FAIR      53  26  35 S12G21    30.19F
HOBBS          SUNNY     52  23  32 SW13      30.20F


$$




USA.gov is the U.S. government's official web portal to all federal, state and local government web resources and services.